Rhinelander, WI

4:49 PM CDT on June 25, 2017 (GMT -0500)
Rhinelander-Oneida County

Weather History for KRHI - November, 2011

Change the Weather History Date:

Wednesday, November 9, 2011

  Actual Average Record
Temperature  
Mean Temperature 33 °F 34 °F  
Max Temperature 34 °F 42 °F 71 °F (1999)
Min Temperature 31 °F 26 °F 6 °F (1959)
Degree Days  
Heating Degree Days 32 31  
Month to date heating degree days 228 263  
Since 1 July heating degree days 1100 1356  
Cooling Degree Days 0 0  
Month to date cooling degree days 0 0  
Year to date cooling degree days 321 261  
Moisture  
Dew Point 30 °F    
Average Humidity 91    
Maximum Humidity 100    
Minimum Humidity 82    
Precipitation  
Precipitation 0.23 in 0.06 in 1.49 in (1975)
Month to date precipitation 0.09 0.58  
Year to date precipitation 24.55 28.70  
Snow  
Snow 9.00 in - 9.00 in (2011)
Month to date snowfall 9.0  
Since 1 July snowfall 9.0  
Since 1 September snowfall 9.0  
Snow Depth 6.00 in    
Sea Level Pressure  
Sea Level Pressure 29.87 in    
Wind  
Wind Speed 9 mph (NNW)    
Max Wind Speed 18 mph    
Max Gust Speed 30 mph    
Visibility 4 miles    
Events Fog , Snow    
T = Trace of Precipitation, MM = Missing Value Source: NWS Daily Summary

Daily Weather History Graph

Daily Weather History Graph

Search for Another Location

Airport or City:

Trip Planner

Search our weather history database for the weather conditions in past years. The results will help you decide how hot, cold, wet, or windy it might be!

Date:

Astronomy

Nov. 09, 2011 Rise Set
Actual Time 6:48 AM CST 4:34 PM CST
Civil Twilight 6:16 AM CST 5:05 PM CST
Nautical Twilight 5:41 AM CST 5:41 PM CST
Astronomical Twilight 5:06 AM CST 6:16 PM CST
Moon 3:45 PM CST (11/9) 5:43 AM CST (11/9)
Length of Visible Light 10h 48m
Length of Day
9h 45m
Waxing Gibbous, 99% of the Moon is Illuminated
Nov 9
Waxing Gibbous
Nov 10
Full
Nov 18
Last Quarter
Nov 25
New
Dec 2
First Quarter

Hourly Weather History & Observations

Time (CST) Temp. Windchill Dew Point Humidity Pressure Visibility Wind Dir Wind Speed Gust Speed Precip Events Conditions
12:53 AM 33.1 °F 28.7 °F 28.0 °F 82% 30.13 in 10.0 mi North 4.6 mph - N/A   Overcast
1:53 AM 34.0 °F 29.8 °F 28.9 °F 82% 30.12 in 10.0 mi NE 4.6 mph - N/A   Overcast
2:53 AM 33.1 °F 28.7 °F 28.0 °F 82% 30.09 in 10.0 mi NNE 4.6 mph - N/A   Overcast
3:53 AM 34.0 °F 29.8 °F 28.0 °F 79% 30.06 in 10.0 mi NNE 4.6 mph - N/A   Overcast
5:21 AM 33.8 °F 28.6 °F 28.4 °F 81% 29.97 in 10.0 mi Variable 5.8 mph - N/A   Overcast
5:53 AM 34.0 °F 28.8 °F 28.9 °F 82% 30.01 in 10.0 mi Variable 5.8 mph - N/A   Overcast
6:11 AM 33.8 °F 27.7 °F 28.4 °F 81% 29.97 in 5.0 mi North 6.9 mph - 0.00 in Snow Light Snow
6:31 AM 33.8 °F 26.4 °F 28.4 °F 81% 29.97 in 3.0 mi North 9.2 mph - 0.00 in Snow Light Snow
6:53 AM 33.1 °F 25.5 °F 30.0 °F 89% 30.02 in 4.0 mi North 9.2 mph - 0.00 in Snow Light Snow
7:23 AM 33.8 °F 26.4 °F 30.2 °F 87% 29.99 in 1.8 mi North 9.2 mph - 0.00 in Snow Light Snow
7:39 AM 32.0 °F 25.6 °F 30.2 °F 93% 29.99 in 2.0 mi North 6.9 mph - 0.01 in Snow Light Snow
7:48 AM 32.0 °F 25.6 °F 30.2 °F 93% 29.98 in 1.2 mi North 6.9 mph - 0.01 in Snow Light Snow
7:53 AM 32.0 °F 25.6 °F 30.0 °F 92% 30.03 in 1.0 mi North 6.9 mph - 0.01 in Snow Light Snow
8:16 AM 32.0 °F 23.6 °F 30.2 °F 93% 29.95 in 0.8 mi North 10.4 mph 17.3 mph 0.01 in Snow Light Snow
8:51 AM 32.0 °F 24.8 °F 30.2 °F 93% 29.92 in 1.0 mi North 8.1 mph - 0.02 in Snow Light Snow
8:53 AM 32.0 °F 25.6 °F 30.0 °F 92% 29.97 in 1.0 mi North 6.9 mph - 0.02 in Snow Light Snow
9:20 AM 32.0 °F 24.2 °F 30.2 °F 93% 29.89 in 0.8 mi North 9.2 mph 17.3 mph 0.00 in Snow Light Snow
9:53 AM 32.0 °F 24.8 °F 30.9 °F 96% 29.94 in 0.5 mi North 8.1 mph - 0.02 in Fog , Snow Snow
10:08 AM 32.0 °F 25.6 °F 30.2 °F 93% 29.88 in 0.8 mi Variable 6.9 mph - 0.01 in Snow Light Snow
10:14 AM 32.0 °F 24.8 °F 30.2 °F 93% 29.88 in 1.2 mi North 8.1 mph - 0.01 in Snow Light Snow
10:18 AM 32.0 °F 26.4 °F 30.2 °F 93% 29.88 in 1.5 mi North 5.8 mph - 0.01 in Snow Light Snow
10:24 AM 33.8 °F 27.0 °F 30.2 °F 87% 29.88 in 2.0 mi North 8.1 mph - 0.01 in Snow Light Snow
10:33 AM 32.0 °F 26.4 °F 30.2 °F 93% 29.87 in 4.0 mi North 5.8 mph - 0.01 in Snow Light Snow
10:53 AM 33.1 °F 25.5 °F 30.0 °F 89% 29.91 in 5.0 mi North 9.2 mph 20.7 mph 0.01 in Snow Light Snow
11:14 AM 33.8 °F 25.3 °F 28.4 °F 81% 29.83 in 10.0 mi North 11.5 mph 18.4 mph 0.00 in   Overcast
11:31 AM 33.8 °F 24.8 °F 28.4 °F 81% 29.82 in 3.0 mi North 12.7 mph 18.4 mph 0.00 in Snow Light Snow
11:34 AM 33.8 °F 24.8 °F 28.4 °F 81% 29.81 in 1.8 mi North 12.7 mph 19.6 mph 0.00 in Snow Light Snow
11:48 AM 32.0 °F 23.6 °F 30.2 °F 93% 29.80 in 0.5 mi North 10.4 mph 20.7 mph 0.00 in Fog , Snow Snow
11:53 AM 32.0 °F 23.0 °F 30.0 °F 92% 29.85 in 0.5 mi North 11.5 mph 23.0 mph 0.01 in Fog , Snow Snow
11:56 AM 32.0 °F 24.8 °F 30.2 °F 93% 29.80 in 0.2 mi NNW 8.1 mph 23.0 mph 0.00 in Fog , Snow Snow
12:12 PM 32.0 °F 23.6 °F 30.2 °F 93% 29.79 in 0.2 mi NNW 10.4 mph - 0.03 in Fog , Snow Snow
12:53 PM 30.9 °F 21.7 °F 30.0 °F 96% 29.81 in 0.2 mi NNW 11.5 mph 23.0 mph 0.07 in Fog , Snow Snow
1:53 PM 32.0 °F 23.6 °F 30.0 °F 92% 29.80 in 0.5 mi NNW 10.4 mph 18.4 mph 0.05 in Fog , Snow Snow
2:53 PM 32.0 °F 24.2 °F 30.0 °F 92% 29.79 in 0.5 mi NNW 9.2 mph 20.7 mph 0.02 in Fog , Snow Snow
3:17 PM 33.8 °F 24.8 °F 30.2 °F 87% 29.74 in 1.0 mi NW 12.7 mph 24.2 mph 0.02 in Snow Light Snow
3:40 PM 33.8 °F 24.8 °F 30.2 °F 87% 29.74 in 2.0 mi NW 12.7 mph 23.0 mph 0.02 in Snow Light Snow
3:42 PM 33.8 °F 23.2 °F 30.2 °F 87% 29.74 in 2.0 mi NW 17.3 mph 28.8 mph 0.02 in Snow Light Snow
3:50 PM 33.8 °F 24.8 °F 30.2 °F 87% 29.75 in 2.5 mi NW 12.7 mph 28.8 mph 0.02 in Snow Light Snow
3:53 PM 33.1 °F 23.9 °F 30.0 °F 89% 29.80 in 2.5 mi NW 12.7 mph 20.7 mph 0.02 in Snow Light Snow
4:09 PM 33.8 °F 23.5 °F 30.2 °F 87% 29.75 in 4.0 mi NW 16.1 mph 29.9 mph 0.00 in Snow Light Snow
4:25 PM 33.8 °F 23.2 °F 28.4 °F 81% 29.75 in 7.0 mi NW 17.3 mph 26.5 mph 0.00 in Snow Light Snow
4:47 PM 33.8 °F 25.3 °F 30.2 °F 87% 29.76 in 2.5 mi WNW 11.5 mph 25.3 mph 0.00 in Snow Light Snow
5:09 PM 33.8 °F 25.3 °F 30.2 °F 87% 29.76 in 4.0 mi NW 11.5 mph 18.4 mph 0.00 in Snow Light Snow
5:17 PM 33.8 °F 24.8 °F 30.2 °F 87% 29.76 in 3.0 mi NW 12.7 mph 20.7 mph 0.00 in Snow Light Snow
5:24 PM 33.8 °F 27.0 °F 30.2 °F 87% 29.76 in 2.5 mi NW 8.1 mph 23.0 mph 0.00 in Snow Light Snow
5:34 PM 33.8 °F 26.4 °F 30.2 °F 87% 29.77 in 3.0 mi NW 9.2 mph 21.9 mph 0.00 in Snow Light Snow
5:42 PM 33.8 °F 24.8 °F 30.2 °F 87% 29.77 in 3.0 mi NW 12.7 mph 21.9 mph 0.00 in Snow Light Snow
5:53 PM 33.1 °F 24.9 °F 30.0 °F 89% 29.82 in 4.0 mi NW 10.4 mph 23.0 mph 0.00 in Snow Light Snow
6:38 PM 33.8 °F 26.4 °F 30.2 °F 87% 29.77 in 9.0 mi WNW 9.2 mph - 0.00 in   Overcast
6:53 PM 33.1 °F 25.5 °F 30.0 °F 89% 29.82 in 10.0 mi West 9.2 mph - 0.00 in   Overcast
7:10 PM 33.8 °F 25.8 °F 30.2 °F 87% 29.76 in 10.0 mi WNW 10.4 mph - N/A   Overcast
7:53 PM 32.0 °F 24.8 °F 28.9 °F 88% 29.81 in 10.0 mi West 8.1 mph - N/A   Overcast
8:53 PM 30.9 °F 22.8 °F 28.9 °F 92% 29.81 in 10.0 mi West 9.2 mph - N/A   Mostly Cloudy
9:53 PM 32.0 °F 23.6 °F 28.0 °F 85% 29.81 in 10.0 mi West 10.4 mph - N/A   Overcast
10:53 PM 33.1 °F 23.4 °F 28.0 °F 82% 29.81 in 10.0 mi West 13.8 mph 23.0 mph N/A   Overcast
11:53 PM 30.9 °F 22.2 °F 25.0 °F 79% 29.82 in 10.0 mi West 10.4 mph - N/A   Mostly Cloudy